| time (UTC) | temp F | wind direction | speed knots | gust knots | rain 1hr in | rain 24hr in | rain mn in | humidity % | barometer mb |
| 20260507061551 | 51 | 241 | 3.5 | 7.0 | 0.00 | 0.18 | 0.11 | 94 | 1011.3 |
| 20260507060547 | 51 | 227 | 3.5 | 6.1 | 0.00 | 0.18 | 0.11 | 94 | 1011.1 |
| 20260507055546 | 51 | 242 | 2.6 | 6.1 | 0.01 | 0.18 | 0.11 | 94 | 1011.0 |
| 20260507054539 | 51 | 243 | 2.6 | 3.5 | 0.01 | 0.18 | 0.11 | 94 | 1010.8 |
| 20260507053538 | 51 | 254 | 3.5 | 6.1 | 0.01 | 0.18 | 0.11 | 94 | 1010.7 |
| 20260507052535 | 51 | 259 | 1.7 | 3.5 | 0.01 | 0.18 | 0.11 | 94 | 1010.8 |
| 20260507051532 | 50 | 242 | 2.6 | 6.1 | 0.01 | 0.18 | 0.11 | 95 | 1010.5 |
| 20260507050524 | 50 | 249 | 1.7 | 3.5 | 0.01 | 0.18 | 0.11 | 95 | 1010.4 |
| 20260507045520 | 50 | 224 | 2.6 | 5.2 | 0.00 | 0.17 | 0.09 | 95 | 1010.3 |
| 20260507044519 | 50 | 234 | 1.7 | 3.5 | 0.00 | 0.17 | 0.09 | 94 | 1010.3 |
| 20260507043616 | 50 | 241 | 1.7 | 5.2 | 0.00 | 0.17 | 0.09 | 94 | 1010.2 |
| 20260507042610 | 50 | 222 | 3.5 | 6.1 | 0.00 | 0.17 | 0.09 | 94 | 1010.1 |
| 20260507041609 | 50 | 231 | 2.6 | 7.0 | 0.00 | 0.17 | 0.09 | 94 | 1010.0 |
| 20260507040603 | 50 | 205 | 2.6 | 6.1 | 0.00 | 0.17 | 0.09 | 93 | 1009.9 |
| 20260507035603 | 50 | 206 | 1.7 | 6.1 | 0.00 | 0.17 | 0.09 | 93 | 1009.8 |
| 20260507034600 | 50 | 225 | 2.6 | 5.2 | 0.00 | 0.17 | 0.09 | 93 | 1009.7 |
| 20260507033557 | 50 | 253 | 2.6 | 5.2 | 0.00 | 0.17 | 0.09 | 93 | 1009.7 |
| 20260507032548 | 50 | 256 | 2.6 | 5.2 | 0.00 | 0.17 | 0.09 | 93 | 1009.6 |
| 20260507031544 | 50 | 214 | 1.7 | 3.5 | 0.00 | 0.17 | 0.09 | 94 | 1009.5 |
| 20260507030541 | 50 | 193 | 0.9 | 3.5 | 0.00 | 0.17 | 0.09 | 94 | 1009.5 |
| 20260507025538 | 50 | 231 | 1.7 | 3.5 | 0.00 | 0.17 | 0.09 | 93 | 1009.5 |
| 20260507024538 | 50 | 256 | 2.6 | 5.2 | 0.00 | 0.17 | 0.09 | 92 | 1009.4 |
| 20260507023534 | 50 | 243 | 2.6 | 5.2 | 0.00 | 0.17 | 0.09 | 91 | 1009.5 |
| 20260507022526 | 50 | 234 | 3.5 | 7.0 | 0.00 | 0.17 | 0.09 | 91 | 1009.5 |
| 20260507021522 | 50 | 260 | 4.3 | 9.6 | 0.00 | 0.17 | 0.09 | 91 | 1009.5 |
| 20260507020517 | 50 | 246 | 3.5 | 6.1 | 0.00 | 0.17 | 0.09 | 92 | 1009.3 |
| 20260507015617 | 51 | 221 | 1.7 | 3.5 | 0.00 | 0.17 | 0.09 | 93 | 1009.2 |
| 20260507014609 | 51 | 244 | 3.5 | 5.2 | 0.00 | 0.17 | 0.09 | 92 | 1009.2 |
| 20260507013606 | 51 | 237 | 3.5 | 6.1 | 0.00 | 0.17 | 0.09 | 92 | 1009.0 |
| 20260507012606 | 51 | 254 | 5.2 | 9.6 | 0.00 | 0.17 | 0.09 | 92 | 1009.0 |
| 20260507011600 | 51 | 236 | 4.3 | 9.6 | 0.01 | 0.17 | 0.09 | 94 | 1009.0 |
| 20260507010556 | 51 | 251 | 2.6 | 7.0 | 0.02 | 0.17 | 0.09 | 94 | 1009.0 |
| 20260507005552 | 51 | 236 | 3.5 | 6.1 | 0.02 | 0.17 | 0.09 | 94 | 1009.1 |
| 20260507004547 | 52 | 230 | 3.5 | 7.0 | 0.04 | 0.17 | 0.09 | 94 | 1009.0 |
| 20260507003544 | 52 | 240 | 3.5 | 9.6 | 0.06 | 0.17 | 0.09 | 95 | 1008.9 |
| 20260507002544 | 52 | 213 | 4.3 | 7.8 | 0.07 | 0.17 | 0.09 | 95 | 1008.9 |
| 20260507001538 | 52 | 222 | 2.6 | 6.1 | 0.07 | 0.15 | 0.08 | 97 | 1009.0 |
| 20260507000538 | 52 | 180 | 1.7 | 3.5 | 0.06 | 0.14 | 0.07 | 96 | 1008.9 |
| 20260506235539 | 52 | 199 | 2.6 | 6.1 | 0.06 | 0.14 | 0.07 | 96 | 1009.0 |
| 20260506234531 | 53 | 235 | 2.6 | 3.5 | 0.06 | 0.13 | 0.06 | 95 | 1009.0 |
| 20260506233527 | 53 | 212 | 2.6 | 7.0 | 0.04 | 0.11 | 0.04 | 95 | 1008.8 |
| 20260506232520 | 53 | 216 | 3.5 | 6.1 | 0.02 | 0.09 | 0.02 | 95 | 1009.0 |
| 20260506231516 | 53 | 223 | 1.7 | 5.2 | 0.01 | 0.08 | 0.01 | 94 | 1008.8 |
| 20260506230612 | 53 | 244 | 2.6 | 6.1 | 0.01 | 0.08 | 0.01 | 94 | 1008.9 |
| 20260506225613 | 53 | 244 | 1.7 | 5.2 | 0.01 | 0.08 | 0.01 | 93 | 1008.7 |
| 20260506224606 | 53 | 248 | 3.5 | 5.2 | 0.00 | 0.07 | 0.00 | 91 | 1008.7 |
| 20260506223602 | 53 | 248 | 3.5 | 5.2 | 0.00 | 0.07 | 0.00 | 91 | 1008.6 |
| 20260506222601 | 53 | 254 | 3.5 | 7.8 | 0.00 | 0.07 | 0.00 | 91 | 1008.4 |
| 20260506221557 | 53 | 264 | 1.7 | 5.2 | 0.00 | 0.07 | 0.00 | 91 | 1008.4 |
| 20260506220552 | 53 | 255 | 3.5 | 7.8 | 0.00 | 0.07 | 0.00 | 91 | 1008.4 |
| 20260506215550 | 54 | 210 | 3.5 | 7.0 | 0.00 | 0.07 | 0.07 | 90 | 1008.4 |
| 20260506214541 | 54 | 256 | 2.6 | 6.1 | 0.00 | 0.07 | 0.07 | 90 | 1008.4 |
| 20260506213538 | 54 | 196 | 2.6 | 7.0 | 0.00 | 0.07 | 0.07 | 89 | 1008.4 |
| 20260506212537 | 54 | 237 | 3.5 | 7.0 | 0.00 | 0.07 | 0.07 | 89 | 1008.3 |
| 20260506211534 | 54 | 203 | 3.5 | 5.2 | 0.00 | 0.07 | 0.07 | 90 | 1008.2 |
| 20260506210530 | 54 | 207 | 1.7 | 3.5 | 0.00 | 0.07 | 0.07 | 92 | 1008.2 |
| 20260506205523 | 55 | 223 | 1.7 | 3.5 | 0.00 | 0.07 | 0.07 | 91 | 1008.1 |
| 20260506204518 | 55 | 247 | 4.3 | 9.6 | 0.01 | 0.07 | 0.07 | 89 | 1007.9 |
| 20260506203515 | 55 | 225 | 2.6 | 5.2 | 0.02 | 0.07 | 0.07 | 94 | 1007.9 |
| 20260506202613 | 55 | 215 | 0.9 | 3.5 | 0.04 | 0.07 | 0.07 | 94 | 1007.9 |
| 20260506201609 | 55 | 206 | 1.7 | 3.5 | 0.05 | 0.07 | 0.07 | 94 | 1007.8 |
| 20260506200609 | 55 | 176 | 0.9 | 3.5 | 0.06 | 0.07 | 0.07 | 94 | 1007.7 |
| 20260506195606 | 55 | 188 | 0.9 | 1.7 | 0.07 | 0.07 | 0.07 | 94 | 1007.7 |
| 20260506194600 | 55 | 183 | 1.7 | 3.5 | 0.06 | 0.06 | 0.06 | 93 | 1007.6 |
| 20260506193559 | 55 | 241 | 1.7 | 3.5 | 0.05 | 0.05 | 0.05 | 93 | 1007.4 |
| 20260506192552 | 56 | 210 | 0.9 | 3.5 | 0.04 | 0.04 | 0.04 | 92 | 1007.3 |
| 20260506191550 | 56 | 248 | 1.7 | 3.5 | 0.02 | 0.02 | 0.02 | 91 | 1007.2 |
| 20260506190546 | 57 | 184 | 1.7 | 3.5 | 0.01 | 0.01 | 0.01 | 89 | 1007.1 |
| 20260506185541 | 57 | 258 | 1.7 | 3.5 | 0.00 | 0.00 | 0.00 | 87 | 1006.8 |
| 20260506184537 | 57 | 231 | 1.7 | 3.5 | 0.00 | 0.00 | 0.00 | 87 | 1006.8 |
| 20260506183534 | 57 | 184 | 3.5 | 6.1 | 0.00 | 0.00 | 0.00 | 85 | 1006.6 |
| 20260506182529 | 58 | 222 | 3.5 | 6.1 | 0.00 | 0.00 | 0.00 | 83 | 1006.6 |
| 20260506181529 | 59 | 198 | 3.5 | 7.8 | 0.00 | 0.00 | 0.00 | 83 | 1006.5 |
| 20260506180520 | 59 | 185 | 2.6 | 3.5 | 0.00 | 0.00 | 0.00 | 82 | 1006.3 |
| 20260506175521 | 59 | 228 | 0.9 | 3.5 | 0.00 | 0.00 | 0.00 | 81 | 1006.0 |
| 20260506174612 | 59 | 180 | 1.7 | 3.5 | 0.00 | 0.00 | 0.00 | 81 | 1006.0 |
| 20260506173609 | 59 | 180 | 1.7 | 1.7 | 0.00 | 0.00 | 0.00 | 83 | 1005.9 |
| 20260506172605 | 60 | 180 | 1.7 | 3.5 | 0.00 | 0.00 | 0.00 | 81 | 1005.9 |
| 20260506171606 | 59 | 0.0 | 0.0 | 0.00 | 0.00 | 0.00 | 80 | 1005.6 | |
| 20260506170558 | 60 | 0.0 | 0.0 | 0.00 | 0.00 | 0.00 | 81 | 1005.7 | |
| 20260506165554 | 60 | 218 | 0.9 | 1.7 | 0.00 | 0.00 | 0.00 | 77 | 1005.6 |
| 20260506164553 | 60 | 231 | 0.0 | 1.7 | 0.00 | 0.00 | 0.00 | 81 | 1005.5 |
| 20260506163549 | 60 | 104 | 1.7 | 3.5 | 0.00 | 0.00 | 0.00 | 79 | 1005.4 |
| 20260506162543 | 61 | 225 | 0.0 | 1.7 | 0.00 | 0.00 | 0.00 | 76 | 1005.3 |
| 20260506161543 | 60 | 259 | 1.7 | 3.5 | 0.00 | 0.02 | 0.00 | 74 | 1005.5 |
| 20260506160537 | 61 | 254 | 2.6 | 5.2 | 0.00 | 0.05 | 0.00 | 70 | 1005.5 |
| 20260506155539 | 62 | 252 | 2.6 | 5.2 | 0.00 | 0.14 | 0.00 | 66 | 1005.7 |
| 20260506154531 | 62 | 259 | 4.3 | 7.0 | 0.00 | 0.25 | 0.00 | 65 | 1005.8 |
| 20260506153529 | 63 | 225 | 4.3 | 9.6 | 0.00 | 0.27 | 0.00 | 66 | 1005.8 |
| 20260506152525 | 64 | 252 | 4.3 | 7.8 | 0.00 | 0.27 | 0.00 | 67 | 1005.7 |
| 20260506151521 | 65 | 243 | 2.6 | 7.0 | 0.00 | 0.27 | 0.00 | 62 | 1005.4 |
| 20260506150615 | 65 | 234 | 2.6 | 3.5 | 0.00 | 0.27 | 0.00 | 60 | 1005.4 |
| 20260506145612 | 65 | 227 | 0.9 | 3.5 | 0.00 | 0.27 | 0.00 | 58 | 1005.6 |
| 20260506144608 | 66 | 245 | 0.9 | 1.7 | 0.00 | 0.27 | 0.00 | 58 | 1005.4 |
| 20260506143608 | 66 | 239 | 0.9 | 3.5 | 0.00 | 0.27 | 0.00 | 57 | 1005.3 |
| 20260506142603 | 66 | 238 | 0.9 | 1.7 | 0.00 | 0.27 | 0.00 | 57 | 1005.5 |
| 20260506141559 | 67 | 218 | 0.9 | 3.5 | 0.00 | 0.27 | 0.00 | 56 | 1005.4 |
| 20260506140551 | 66 | 250 | 1.7 | 3.5 | 0.00 | 0.27 | 0.00 | 58 | 1005.6 |
| 20260506135550 | 65 | 211 | 0.9 | 1.7 | 0.00 | 0.27 | 0.00 | 58 | 1005.5 |
| 20260506134543 | 65 | 235 | 0.9 | 3.5 | 0.00 | 0.27 | 0.00 | 60 | 1005.5 |
| 20260506133539 | 66 | 218 | 2.6 | 3.5 | 0.00 | 0.27 | 0.00 | 58 | 1005.7 |
| 20260506132544 | 66 | 227 | 1.7 | 5.2 | 0.00 | 0.27 | 0.00 | 57 | 1005.8 |
| 20260506131537 | 66 | 205 | 2.6 | 5.2 | 0.00 | 0.27 | 0.00 | 58 | 1005.7 |
| 20260506130529 | 66 | 178 | 2.6 | 7.8 | 0.00 | 0.27 | 0.00 | 57 | 1005.7 |
| 20260506125525 | 66 | 183 | 2.6 | 5.2 | 0.00 | 0.27 | 0.00 | 56 | 1005.9 |
| 20260506124520 | 66 | 207 | 0.9 | 3.5 | 0.00 | 0.27 | 0.00 | 57 | 1005.9 |
| 20260506123517 | 67 | 191 | 1.7 | 5.2 | 0.00 | 0.27 | 0.00 | 56 | 1005.9 |
| 20260506122614 | 67 | 163 | 3.5 | 7.0 | 0.00 | 0.27 | 0.00 | 56 | 1006.0 |
| 20260506121614 | 68 | 241 | 1.7 | 7.0 | 0.00 | 0.27 | 0.00 | 56 | 1006.0 |
| 20260506120611 | 66 | 181 | 3.5 | 7.8 | 0.00 | 0.27 | 0.00 | 59 | 1006.1 |
| 20260506115605 | 66 | 176 | 0.9 | 5.2 | 0.00 | 0.27 | 0.00 | 60 | 1006.1 |
| 20260506114605 | 67 | 189 | 1.7 | 3.5 | 0.00 | 0.27 | 0.00 | 57 | 1006.2 |
| 20260506113601 | 66 | 193 | 1.7 | 5.2 | 0.00 | 0.27 | 0.00 | 60 | 1006.2 |
| 20260506112557 | 65 | 184 | 2.6 | 3.5 | 0.00 | 0.27 | 0.00 | 59 | 1006.2 |
| 20260506111549 | 66 | 188 | 1.7 | 7.8 | 0.00 | 0.27 | 0.00 | 58 | 1006.3 |
| 20260506110546 | 66 | 192 | 0.9 | 3.5 | 0.00 | 0.27 | 0.00 | 61 | 1006.5 |
| 20260506105546 | 65 | 83 | 0.9 | 3.5 | 0.00 | 0.27 | 0.00 | 60 | 1006.5 |
| 20260506104542 | 64 | 150 | 1.7 | 5.2 | 0.00 | 0.27 | 0.00 | 62 | 1006.4 |
| 20260506103535 | 65 | 200 | 1.7 | 1.7 | 0.00 | 0.27 | 0.00 | 61 | 1006.5 |
| 20260506102531 | 64 | 245 | 2.6 | 5.2 | 0.00 | 0.27 | 0.00 | 63 | 1006.7 |
| 20260506101530 | 64 | 199 | 1.7 | 6.1 | 0.00 | 0.27 | 0.00 | 63 | 1006.7 |
| 20260506100523 | 64 | 225 | 0.9 | 3.5 | 0.00 | 0.27 | 0.00 | 65 | 1006.8 |
| 20260506095518 | 63 | 179 | 1.7 | 5.2 | 0.00 | 0.27 | 0.00 | 68 | 1006.8 |
| 20260506094617 | 63 | 183 | 3.5 | 9.6 | 0.00 | 0.27 | 0.00 | 67 | 1006.7 |
| 20260506093611 | 63 | 187 | 1.7 | 7.8 | 0.00 | 0.27 | 0.00 | 67 | 1006.8 |
| 20260506092608 | 62 | 248 | 1.7 | 3.5 | 0.00 | 0.27 | 0.00 | 69 | 1006.8 |
| 20260506091608 | 62 | 219 | 0.9 | 3.5 | 0.00 | 0.27 | 0.00 | 72 | 1006.7 |
| 20260506090603 | 61 | 236 | 1.7 | 5.2 | 0.00 | 0.27 | 0.00 | 72 | 1007.0 |
| 20260506085556 | 61 | 215 | 1.7 | 3.5 | 0.00 | 0.27 | 0.00 | 75 | 1007.0 |
| 20260506084552 | 62 | 216 | 2.6 | 6.1 | 0.00 | 0.27 | 0.00 | 73 | 1006.8 |
| 20260506083551 | 62 | 201 | 1.7 | 5.2 | 0.00 | 0.27 | 0.00 | 74 | 1006.9 |
| 20260506082548 | 62 | 158 | 0.0 | 3.5 | 0.00 | 0.27 | 0.00 | 75 | 1006.9 |
| 20260506081542 | 60 | 187 | 1.7 | 3.5 | 0.00 | 0.27 | 0.00 | 78 | 1006.9 |
| 20260506080539 | 58 | 232 | 2.6 | 5.2 | 0.00 | 0.27 | 0.00 | 82 | 1006.8 |
| 20260506073529 | 58 | 174 | 1.7 | 5.2 | 0.00 | 0.27 | 0.00 | 83 | 1006.7 |
| 20260506072525 | 57 | 184 | 2.6 | 3.5 | 0.00 | 0.27 | 0.00 | 85 | 1006.7 |
| 20260506071523 | 58 | 201 | 2.6 | 6.1 | 0.00 | 0.27 | 0.00 | 83 | 1006.7 |
| 20260506070517 | 58 | 180 | 2.6 | 3.5 | 0.00 | 0.27 | 0.00 | 83 | 1006.6 |